Weather History for Branson, MO

Change the Weather History Date:

Sunday, July 28, 2013

  Actual Average (KHRO) Record (KHRO)
Temperature  
Mean Temperature 68 °F 79 °F  
Max Temperature 75 °F 90 °F 107 °F (1936)
Min Temperature 60 °F 68 °F 53 °F (1920)
Degree Days  
Heating Degree Days 0 0  
Month to date heating degree days 0  
Since 1 June heating degree days 6  
Since 1 July heating degree days 0  
Cooling Degree Days 2 14  
Month to date cooling degree days 373  
Year to date cooling degree days 777  
Since 1 June cooling degree days 638  
Growing Degree Days 18 (Base 50)    
Moisture  
Dew Point 61 °F    
Average Humidity 86    
Maximum Humidity 94    
Minimum Humidity 57    
Precipitation  
Precipitation 0.00 in 0.10 in 5.55 in (1946)
Month to date precipitation 2.83  
Year to date precipitation 25.07  
Snow  
Snow 0.00 in 0.00 in - ()
Month to date snowfall 0.0  
Since 1 June snowfall 0.0  
Since 1 July snowfall 0.0  
Snow Depth -    
Sea Level Pressure  
Sea Level Pressure 30.07 in    
Wind  
Wind Speed 1 mph (SE)    
Max Wind Speed 9 mph    
Max Gust Speed -    
Visibility 10 miles    
Events Rain    
T = Trace of Precipitation, MM = Missing Value Source: NWS Daily Summary

Daily Weather History Graph

Daily Weather History Graph

Search for Another Location

Airport:

Trip Planner

Search our weather history database for the weather conditions in past years. The results will help you decide how hot, cold, wet, or windy it might be!

Date:

Astronomy

Jul. 28, 2013 Rise Set
Actual Time 6:16 AM CDT 8:22 PM CDT
Civil Twilight 5:47 AM CDT 8:50 PM CDT
Nautical Twilight 5:12 AM CDT 9:25 PM CDT
Astronomical Twilight 4:34 AM CDT 10:03 PM CDT
Moon 11:57 PM CDT (7/28) 12:46 PM CDT (7/28)
Length of Visible Light 15h 03m
Length of Day
14h 06m
Waning Gibbous, 60% of the Moon is Illuminated
Jul 28
Waning Gibbous
Jul 29
Last Quarter
Aug 6
New
Aug 14
First Quarter
Aug 20
Full

Hourly Weather History & Observations

Time (CDT) Temp. Dew Point Humidity Pressure Visibility Wind Dir Wind Speed Gust Speed Precip Events Conditions
12:15 AM 62.6 °F 59.0 °F 88% 30.04 in 10.0 mi Calm Calm - N/A   Clear
12:35 AM 62.6 °F 59.0 °F 88% 30.04 in 10.0 mi Calm Calm - N/A   Clear
12:55 AM 62.6 °F 59.0 °F 88% 30.04 in 10.0 mi Calm Calm - N/A   Clear
1:15 AM 62.6 °F 59.0 °F 88% 30.04 in 10.0 mi Calm Calm - N/A   Partly Cloudy
1:35 AM 60.8 °F 57.2 °F 88% 30.05 in 10.0 mi Calm Calm - N/A   Partly Cloudy
1:55 AM 60.8 °F 57.2 °F 88% 30.05 in 10.0 mi Calm Calm - N/A   Clear
2:15 AM 62.6 °F 59.0 °F 88% 30.05 in 10.0 mi Calm Calm - N/A   Clear
2:35 AM 62.6 °F 59.0 °F 88% 30.04 in 10.0 mi Calm Calm - N/A   Partly Cloudy
2:55 AM 62.6 °F 57.2 °F 82% 30.05 in 5.0 mi Calm Calm - N/A   Partly Cloudy
3:15 AM 62.6 °F 59.0 °F 88% 30.04 in 10.0 mi Calm Calm - N/A   Mostly Cloudy
3:35 AM 62.6 °F 59.0 °F 88% 30.04 in 10.0 mi Calm Calm - N/A   Overcast
3:55 AM 62.6 °F 59.0 °F 88% 30.04 in 10.0 mi Calm Calm - N/A   Overcast
4:15 AM 62.6 °F 59.0 °F 88% 30.03 in 10.0 mi Calm Calm - N/A   Overcast
4:35 AM 64.4 °F 59.0 °F 83% 30.04 in 10.0 mi Calm Calm - N/A   Overcast
4:55 AM 62.6 °F 59.0 °F 88% 30.04 in 10.0 mi Calm Calm - N/A   Overcast
5:15 AM 64.4 °F 60.8 °F 88% 30.05 in 10.0 mi Calm Calm - N/A   Overcast
5:35 AM 62.6 °F 59.0 °F 88% 30.06 in 10.0 mi Calm Calm - N/A   Mostly Cloudy
5:55 AM 62.6 °F 59.0 °F 88% 30.07 in 10.0 mi Calm Calm - N/A   Mostly Cloudy
6:15 AM 62.6 °F 59.0 °F 88% 30.07 in 10.0 mi Calm Calm - N/A   Overcast
6:45 AM 62.6 °F 60.8 °F 94% 30.06 in 10.0 mi Calm Calm - N/A   Overcast
7:45 AM 62.6 °F 60.8 °F 94% 30.06 in 10.0 mi Calm Calm - N/A   Overcast
8:45 AM 64.4 °F 60.8 °F 88% 30.08 in 10.0 mi Calm Calm - N/A   Overcast
9:45 AM 66.2 °F 59.0 °F 78% 30.07 in 10.0 mi SE 8.1 mph - N/A   Overcast
10:57 AM 66.2 °F 59.0 °F 78% 30.07 in 10.0 mi SE 5.8 mph - N/A   Overcast
11:45 AM 68.0 °F 59.0 °F 73% 30.08 in 10.0 mi SE 4.6 mph - N/A   Overcast
12:45 PM 69.8 °F 59.0 °F 68% 30.08 in 10.0 mi SSE 6.9 mph - N/A   Overcast
1:50 PM 71.6 °F 59.0 °F 64% 30.08 in 10.0 mi SE 5.8 mph - N/A   Overcast
2:50 PM 75.2 °F 59.0 °F 57% 30.07 in 10.0 mi Calm Calm - N/A   Overcast
3:50 PM 73.4 °F 62.6 °F 69% 30.08 in 10.0 mi NNW 9.2 mph - N/A   Overcast
4:51 PM 71.6 °F 64.4 °F 78% 30.08 in 10.0 mi NNE 4.6 mph - N/A   Overcast
5:45 PM 68.0 °F 64.4 °F 88% 30.08 in 10.0 mi Calm Calm - N/A Rain Light Rain
6:45 PM 68.0 °F 62.6 °F 83% 30.08 in 10.0 mi Calm Calm - N/A Rain Light Rain
7:45 PM 66.2 °F 62.6 °F 88% 30.09 in 10.0 mi Calm Calm - N/A   Overcast
8:45 PM 64.4 °F 62.6 °F 94% 30.07 in 10.0 mi Calm Calm - N/A   Overcast
8:55 PM 66.2 °F 62.6 °F 88% 30.08 in 10.0 mi Calm Calm - N/A   Mostly Cloudy
9:15 PM 66.2 °F 64.4 °F 94% 30.08 in 10.0 mi Calm Calm - N/A   Overcast
9:35 PM 66.2 °F 62.6 °F 88% 30.09 in 10.0 mi Calm Calm - N/A   Mostly Cloudy
9:55 PM 66.2 °F 62.6 °F 88% 30.09 in 10.0 mi South 4.6 mph - N/A   Partly Cloudy
10:15 PM 66.2 °F 62.6 °F 88% 30.10 in 10.0 mi Calm Calm - N/A   Partly Cloudy
10:35 PM 66.2 °F 64.4 °F 94% 30.09 in 10.0 mi Calm Calm - N/A   Mostly Cloudy
10:55 PM 66.2 °F 64.4 °F 94% 30.11 in 10.0 mi Calm Calm - N/A   Overcast
11:15 PM 66.2 °F 64.4 °F 94% 30.10 in 10.0 mi Calm Calm - N/A   Overcast
11:35 PM 66.2 °F 62.6 °F 88% 30.10 in 10.0 mi Calm Calm - N/A   Overcast
11:55 PM 66.2 °F 64.4 °F 94% 30.10 in 10.0 mi Calm Calm - N/A   Overcast